[[{"header":{"parameterUnit":"m.s-1","parameterCategory":1,"la1":30.2991,"la2":30.254,"lo1":-89.0895,"lo2":-89.0444,"dy":0.0017,"dx":0.0017,"nx":28,"ny":28,"refTime":"2024-05-14T09:00:00:Z","depth":0,"parameterNumber":2,"parameterNumberName":"U-component_of_WINDS"},"data":[0,0,0,0,0,0,0,0,0,0,0,0,0,0,0,0,0,0,0,0,0,0,0,0,0,0,0,0,0,0,0,0,0,0,0,0,0,0,0,0,0,0,0,0,0,0,0,0,0,0,0,0,0,0,0,0,0,0,5.8493,5.8494,0,5.8556,5.8556,5.8557,5.8469,5.8466,5.8463,5.846,5.8523,5.8527,5.8532,0,0,0,0,0,0,0,0,0,0,0,0,0,5.8297,5.8301,5.8493,5.8494,5.8495,5.8556,5.8556,5.8557,5.847,5.8466,5.8462,5.8458,5.8521,5.8527,5.8532,0,0,0,0,0,0,0,0,0,0,0,0,0,5.8373,5.8302,5.8493,5.8458,5.8456,5.8555,5.8556,5.8557,5.847,5.8466,5.8461,5.8457,5.852,5.8526,5.8533,5.8669,0,0,5.8554,5.8557,0,0,0,0,0,0,0,0,5.8369,5.838,5.8463,5.8461,5.8458,5.85,5.851,5.8595,5.8472,5.8465,5.846,5.8454,5.8519,5.8526,5.8548,5.8672,5.8675,5.8555,5.8559,5.8562,5.8564,0,0,0,0,0,0,0,5.8364,5.8377,5.8518,5.8464,5.8461,5.8439,5.8445,5.8526,5.8517,5.8465,5.8459,5.8468,5.8517,5.8541,5.8548,5.8676,5.8555,5.8561,5.8565,5.8568,5.8914,5.8919,0,0,0,0,0,0,5.8363,5.8373,5.8516,5.852,5.8401,5.8447,5.8453,5.8491,5.8516,5.8516,5.8471,5.8463,5.8532,5.8541,5.855,5.871,5.8562,5.8568,5.8572,5.8909,5.8915,5.8921,0,0,0,0,0,0,5.8359,5.8376,5.8513,5.8445,5.8461,5.8455,5.8499,5.8495,5.8519,5.8521,5.8519,5.8498,5.8528,5.8541,5.864,5.8711,5.8571,5.8578,5.8903,5.8911,5.8918,5.9031,0,0,0,0,0,0,5.8354,5.8376,5.8427,5.8447,5.8465,5.8603,5.8503,5.85,5.8531,5.8521,5.8545,5.8545,5.8526,5.863,5.8647,5.8718,5.8583,5.8897,5.8907,5.8916,5.9021,5.9042,5.906,0,0,0,0,0,5.8347,5.8457,5.8431,5.8448,5.853,5.8607,5.8617,5.8593,5.8537,5.8589,5.859,5.8544,5.8701,5.8641,5.8659,5.8733,5.8892,5.8904,5.8915,5.9013,5.9038,5.9059,0,0,0,0,0,0,5.8446,5.8459,5.843,5.8549,5.8578,5.8592,5.8656,5.8621,5.8665,5.8654,5.8622,5.8628,5.8734,5.8744,5.8677,5.8866,5.8787,5.8803,5.8855,5.8879,5.8898,5.8893,5.8589,0,0,0,0,0,5.8481,5.8544,5.8552,5.8656,5.8672,5.8662,5.8695,5.8674,5.8702,5.8714,5.8722,5.8751,5.8806,5.8844,5.8895,5.9023,5.9026,5.9083,5.9102,5.9118,5.9131,5.9198,5.9222,5.8958,5.8958,5.8958,0,0,5.8556,5.8571,5.8612,5.8677,5.8696,5.876,5.8673,5.8745,5.8792,5.8725,5.8818,5.8826,5.8856,5.897,5.9021,5.8981,5.9205,5.9132,5.9145,5.9149,5.9212,5.9237,5.9259,5.8966,5.8965,5.8963,0,0,5.8723,5.8742,5.883,5.8852,5.8883,5.8875,5.8897,5.8917,5.8919,5.9013,5.8964,5.902,5.9116,5.9139,5.9164,5.9341,5.9299,5.9359,5.9458,5.9524,5.9545,5.9563,5.9624,5.9647,5.9372,5.9373,5.9373,0,5.8811,5.8907,5.888,5.8956,5.8985,5.8928,5.9016,5.9039,5.9085,5.9106,5.9062,5.9182,5.9198,5.9316,5.9359,5.9382,5.9404,5.9355,5.9544,5.9562,5.9579,5.9637,5.966,5.938,5.9379,5.9378,5.9377,0,5.9012,5.908,5.9147,5.9193,5.9231,5.9313,5.9298,5.9339,5.9316,5.9313,5.9409,5.9427,5.948,5.9507,5.9485,5.9622,5.9596,5.9549,5.9469,5.9611,5.9665,5.9687,5.9389,5.9387,5.9385,5.9383,0,0,5.9242,5.9273,5.9298,5.9318,5.9348,5.9399,5.9479,5.9531,5.9566,5.9601,5.9665,5.9749,5.9705,5.9733,5.9713,5.9771,5.9908,5.9716,5.9716,5.9749,6.0058,6.0093,6.0119,5.9882,5.9886,5.9889,6.0055,0,5.9408,5.9545,5.9524,5.9656,5.9717,5.9663,5.9732,5.9758,5.9758,5.9809,5.9809,5.9868,5.9807,5.9823,5.9878,5.988,5.9969,5.9868,5.994,5.9943,5.9932,6.0147,6.0184,6.034,6.0076,6.008,6.0083,0,5.962,5.9661,5.98,5.982,5.9844,5.9907,5.9953,6.0003,6.0031,6.0027,6.0059,6.0028,6.0107,6.0027,6.0134,6.0066,6.0094,6.01,6.0105,6.0109,6.002,6.0155,6.0389,6.0412,6.0116,6.0113,6.0111,0,5.9771,5.9862,5.9956,5.9975,6.0002,6.0046,6.0059,6.0083,6.0116,6.0156,6.0177,6.0227,6.0253,6.0292,6.0275,6.0219,6.0385,6.0304,6.0383,6.0383,6.0418,6.0416,6.0657,6.0441,6.044,6.044,6.0439,0,5.9957,6.0043,6.0024,6.0082,6.0177,6.0152,6.0246,6.0253,6.0274,6.0332,6.029,6.0345,6.032,6.0373,6.0361,6.0451,6.0464,6.0462,6.0457,6.0464,6.0464,6.0481,6.0469,6.0446,6.0445,6.0443,6.0442,0,6.0141,6.0132,6.0231,6.0248,6.0255,6.0324,6.0338,6.0392,6.0389,6.0462,6.0478,6.0474,6.0534,6.0522,6.0588,6.058,6.0692,6.0675,6.0682,6.0677,6.0755,6.0748,6.1015,6.1048,6.0812,6.0814,6.0816,0,6.0259,6.0324,6.0349,6.0384,6.0401,6.0459,6.0492,6.047,6.0507,6.0544,6.0593,6.065,6.0693,6.0792,6.0795,6.0845,6.0828,6.0918,6.0835,6.084,6.0827,6.0822,6.0828,6.0934,6.0936,6.0939,6.094,0,6.047,6.0462,6.0512,6.056,6.0601,6.0638,6.0671,6.0703,6.0684,6.0727,6.0788,6.0822,6.089,6.0947,6.0994,6.1006,6.097,6.0967,6.0987,6.0994,6.0995,6.0994,6.0725,6.096,6.0958,6.0957,6.0956,6.0955,6.0623,6.0678,6.0703,6.076,6.0783,6.0815,6.0865,6.0869,6.092,6.0974,6.0958,6.1027,6.1054,6.1113,6.1131,6.1185,6.1151,6.1181,6.1188,6.1196,6.1204,6.0989,6.1194,6.1193,6.1193,6.1192,6.1192,0,6.0829,6.0843,6.0896,6.0943,6.0988,6.0951,6.0986,6.1025,6.1087,6.1114,6.1159,6.1229,6.1283,6.1291,6.1342,6.1384,6.1368,6.1398,6.1393,6.1396,6.1232,6.1209,6.1409,6.1409,6.1409,6.1409,6.1409,6.1409,6.0941,6.1032,6.1028,6.1129,6.1142,6.121,6.1232,6.1261,6.1283,6.1363,6.1409,6.1413,6.1432,6.1485,6.1533,6.1534,6.1554,6.1589,6.1584,6.143,6.1408,6.1387,6.1365,6.1595,6.1595,6.1743,6.1744,6.1745]},{"header":{"parameterUnit":"m.s-1","parameterCategory":1,"la1":30.2991,"la2":30.254,"lo1":-89.0895,"lo2":-89.0444,"dy":0.0017,"dx":0.0017,"nx":28,"ny":28,"refTime":"2024-05-14T09:00:00:Z","depth":0,"parameterNumber":3,"parameterNumberName":"V-component_of_WINDS"},"data":[0,0,0,0,0,0,0,0,0,0,0,0,0,0,0,0,0,0,0,0,0,0,0,0,0,0,0,0,0,0,0,0,0,0,0,0,0,0,0,0,0,0,0,0,0,0,0,0,0,0,0,0,0,0,0,0,0,0,3.7367,3.7368,0,3.7442,3.7443,3.7443,3.7443,3.7442,3.7441,3.744,3.7514,3.7517,3.752,0,0,0,0,0,0,0,0,0,0,0,0,0,3.7221,3.7224,3.7367,3.7368,3.7369,3.7442,3.7443,3.7444,3.7443,3.7442,3.744,3.7439,3.7513,3.7517,3.752,0,0,0,0,0,0,0,0,0,0,0,0,0,3.7289,3.7225,3.7367,3.7377,3.7379,3.7441,3.7443,3.7444,3.7443,3.7441,3.744,3.7439,3.7512,3.7517,3.7521,3.7577,0,0,3.7534,3.7536,0,0,0,0,0,0,0,0,3.7285,3.7294,3.7375,3.7377,3.7379,3.7431,3.7419,3.7489,3.7443,3.7419,3.744,3.7438,3.7488,3.7494,3.7511,3.7581,3.7584,3.7535,3.7537,3.7539,3.754,0,0,0,0,0,0,0,3.728,3.7291,3.7397,3.7376,3.7378,3.7377,3.7385,3.7432,3.7461,3.7421,3.7421,3.743,3.7489,3.7507,3.7513,3.7585,3.7534,3.7538,3.7541,3.7543,3.7703,3.7705,0,0,0,0,0,0,3.7274,3.7287,3.7394,3.7399,3.7327,3.7381,3.739,3.7416,3.746,3.7465,3.7431,3.7429,3.75,3.7508,3.7516,3.7584,3.7539,3.7543,3.7546,3.7701,3.7703,3.7705,0,0,0,0,0,0,3.7271,3.7284,3.7391,3.7343,3.7357,3.7385,3.7414,3.7418,3.7437,3.7468,3.7473,3.7445,3.75,3.751,3.7562,3.7587,3.7545,3.7549,3.7699,3.7702,3.7704,3.7723,0,0,0,0,0,0,3.7267,3.7282,3.7305,3.7344,3.7359,3.7437,3.7416,3.7421,3.7445,3.7443,3.7482,3.7487,3.7499,3.7555,3.7566,3.7592,3.7552,3.7697,3.7701,3.7703,3.772,3.7725,3.773,0,0,0,0,0,3.7261,3.7307,3.7306,3.7319,3.7388,3.7439,3.7448,3.7461,3.7447,3.7469,3.7489,3.7486,3.7582,3.7561,3.7573,3.7601,3.7696,3.77,3.7703,3.7718,3.7724,3.773,0,0,0,0,0,0,3.7271,3.7313,3.7312,3.7372,3.7402,3.7439,3.7468,3.7468,3.7502,3.75,3.7514,3.7523,3.7575,3.7592,3.7568,3.7657,3.7637,3.7643,3.7644,3.765,3.7655,3.765,3.7556,0,0,0,0,0,3.728,3.7318,3.7352,3.7401,3.7416,3.7439,3.7462,3.7469,3.7501,3.7513,3.7537,3.7567,3.7603,3.7627,3.7663,3.7721,3.773,3.7746,3.7751,3.7755,3.7761,3.7792,3.78,3.7717,3.7717,3.7717,0,0,3.7299,3.7327,3.735,3.7404,3.7428,3.7467,3.745,3.7492,3.752,3.7519,3.7571,3.7588,3.7622,3.7678,3.7703,3.7694,3.7785,3.776,3.7763,3.7767,3.7797,3.7805,3.7812,3.772,3.7719,3.7719,0,0,3.7354,3.7379,3.7423,3.7447,3.7483,3.7498,3.7508,3.7544,3.7556,3.7607,3.7607,3.764,3.7704,3.7728,3.7749,3.781,3.7808,3.782,3.7848,3.7878,3.7885,3.789,3.7912,3.792,3.7826,3.7826,3.7826,0,3.7374,3.7433,3.7445,3.7487,3.751,3.751,3.7554,3.7576,3.7622,3.7638,3.7627,3.7706,3.7729,3.7789,3.7804,3.782,3.7832,3.7817,3.7883,3.7889,3.7894,3.7915,3.7924,3.7827,3.7827,3.7827,3.7827,0,3.7454,3.7495,3.7525,3.757,3.7596,3.7639,3.7656,3.7681,3.7685,3.7701,3.7752,3.7779,3.782,3.7834,3.7839,3.7895,3.7888,3.788,3.7861,3.7903,3.7923,3.7932,3.7829,3.7829,3.7828,3.7828,0,0,3.752,3.7569,3.7581,3.76,3.7639,3.767,3.7711,3.7752,3.7773,3.7803,3.7838,3.789,3.7882,3.7905,3.7912,3.7939,3.7985,3.7927,3.7928,3.7937,3.8048,3.8055,3.8064,3.7983,3.7985,3.7986,3.8045,0,3.758,3.7655,3.7666,3.7731,3.7768,3.7768,3.7803,3.783,3.7845,3.7877,3.7893,3.793,3.7916,3.793,3.7956,3.7974,3.8008,3.7969,3.8016,3.8017,3.8009,3.8075,3.8083,3.8138,3.8053,3.8054,3.8055,0,3.766,3.7693,3.7763,3.7795,3.7811,3.7843,3.788,3.7911,3.7941,3.7949,3.7974,3.7977,3.8019,3.7996,3.8053,3.8027,3.8046,3.8057,3.8059,3.8065,3.804,3.8084,3.8156,3.8164,3.8068,3.8067,3.8066,0,3.7702,3.7763,3.7813,3.7829,3.7869,3.7891,3.7908,3.7937,3.7959,3.7991,3.8005,3.8041,3.8061,3.8087,3.8099,3.8082,3.8155,3.8134,3.8163,3.8163,3.8181,3.818,3.8258,3.819,3.819,3.819,3.819,0,3.7769,3.7811,3.7832,3.7862,3.7909,3.792,3.7966,3.7982,3.8007,3.804,3.804,3.8071,3.8084,3.8116,3.8125,3.8171,3.8179,3.8187,3.8189,3.8188,3.8187,3.8202,3.8199,3.8192,3.8192,3.8191,3.8191,0,3.7824,3.784,3.7894,3.7926,3.7934,3.7968,3.7995,3.8023,3.8036,3.8077,3.8088,3.8108,3.8146,3.816,3.8205,3.8211,3.8264,3.8263,3.8255,3.8255,3.8284,3.8282,3.8376,3.8389,3.8312,3.8313,3.8313,0,3.7867,3.7899,3.7934,3.7956,3.7974,3.801,3.8033,3.8044,3.8068,3.8103,3.8127,3.8164,3.8195,3.8255,3.8273,3.8308,3.8308,3.8338,3.8313,3.831,3.8309,3.8307,3.8311,3.8343,3.8344,3.8345,3.8345,0,3.794,3.7945,3.7979,3.8015,3.8042,3.8071,3.8098,3.8116,3.8131,3.8157,3.8196,3.8219,3.8265,3.8302,3.8337,3.8354,3.8352,3.8352,3.8361,3.8361,3.8356,3.836,3.8269,3.8351,3.835,3.835,3.835,3.8349,3.7991,3.802,3.8049,3.8085,3.8107,3.8132,3.8161,3.8177,3.8209,3.8248,3.8252,3.8293,3.832,3.8367,3.8384,3.8416,3.8408,3.842,3.8424,3.8427,3.843,3.8349,3.8422,3.8422,3.8422,3.8422,3.8422,0,3.8065,3.8083,3.8117,3.8155,3.8184,3.8179,3.8208,3.8232,3.8269,3.8294,3.8324,3.8367,3.8402,3.8423,3.8457,3.8479,3.8479,3.8488,3.8487,3.8491,3.8435,3.8424,3.8487,3.8487,3.8487,3.8487,3.8487,3.8487,3.8107,3.8155,3.8164,3.8222,3.8239,3.828,3.8297,3.832,3.834,3.8389,3.8418,3.8431,3.8454,3.849,3.8522,3.8526,3.854,3.8549,3.8554,3.8501,3.8495,3.8488,3.8478,3.8552,3.8552,3.8607,3.8608,3.8608]}]]